When you browse on this site, cookies collect data to enhance your experience and personalize the content and advertising you see.
Visit our Privacy Policy to learn more. By continuing to use the site, you agree to this use of cookies and data.
EN

Hourly Weather Dobropole

Today, 15 July, Wednesday

Time Temperature Precipitation Wind Pressure Humidity
00:00 +14°C° 0.1 mm 6 mps 742 mmHg 84%
01:00 +14°C° 0.1 mm 6 mps 742 mmHg 86%
02:00 +14°C° 0.1 mm 6 mps 742 mmHg 87%
03:00 +14°C° 0 mm 5 mps 743 mmHg 86%
04:00 +14°C° 0 mm 5 mps 743 mmHg 86%
05:00 +14°C° 0 mm 5 mps 743 mmHg 85%
06:00 +16°C° 0 mm 6 mps 744 mmHg 79%
07:00 +17°C° 0 mm 6 mps 744 mmHg 72%
08:00 +19°C° 0 mm 6 mps 744 mmHg 66%
09:00 +21°C° 0 mm 6 mps 744 mmHg 61%
10:00 +22°C° 0 mm 6 mps 744 mmHg 56%
11:00 +23°C° 0 mm 6 mps 745 mmHg 52%
12:00 +23°C° 0 mm 6 mps 745 mmHg 50%
13:00 +24°C° 0 mm 6 mps 745 mmHg 49%
14:00 +24°C° 0 mm 6 mps 745 mmHg 47%
15:00 +25°C° 0 mm 5 mps 745 mmHg 49%
16:00 +25°C° 0 mm 5 mps 745 mmHg 50%
17:00 +23°C° 0 mm 4 mps 745 mmHg 52%
18:00 +22°C° 0 mm 3 mps 745 mmHg 57%
19:00 +20°C° 0 mm 2 mps 745 mmHg 62%
20:00 +19°C° 0 mm 1 mps 745 mmHg 67%
21:00 +19°C° 0 mm 1 mps 745 mmHg 68%
22:00 +18°C° 0 mm 1 mps 745 mmHg 69%
23:00 +18°C° 0 mm 1 mps 745 mmHg 71%

Tomorrow, 16 July, Thursday

Time Temperature Precipitation Wind Pressure Humidity
00:00 +16°C° 0 mm 1 mps 745 mmHg 73%
01:00 +16°C° 0 mm 1 mps 746 mmHg 75%
02:00 +15°C° 0 mm 1 mps 746 mmHg 77%
03:00 +15°C° 0 mm 1 mps 745 mmHg 77%
04:00 +16°C° 0 mm 1 mps 745 mmHg 77%
05:00 +16°C° 0 mm 1 mps 745 mmHg 77%
06:00 +19°C° 0 mm 1 mps 745 mmHg 70%
07:00 +21°C° 0 mm 1 mps 746 mmHg 63%
08:00 +23°C° 0 mm 2 mps 746 mmHg 56%
09:00 +24°C° 0 mm 2 mps 746 mmHg 52%
10:00 +25°C° 0 mm 2 mps 746 mmHg 48%
11:00 +26°C° 0 mm 3 mps 745 mmHg 44%
12:00 +26°C° 0 mm 3 mps 745 mmHg 44%
13:00 +26°C° 0 mm 2 mps 745 mmHg 44%
14:00 +26°C° 0 mm 2 mps 745 mmHg 44%
15:00 +26°C° 0 mm 2 mps 745 mmHg 45%
16:00 +26°C° 0 mm 2 mps 744 mmHg 46%
17:00 +26°C° 0 mm 1 mps 744 mmHg 47%
18:00 +24°C° 0 mm 1 mps 744 mmHg 51%
19:00 +23°C° 0 mm 1 mps 744 mmHg 55%
20:00 +21°C° 0 mm 1 mps 744 mmHg 58%
21:00 +21°C° 0 mm 1 mps 744 mmHg 60%
22:00 +20°C° 0 mm 1 mps 744 mmHg 62%
23:00 +19°C° 0 mm 2 mps 744 mmHg 63%

Day after tomorrow, 17 July, Friday

Time Temperature Precipitation Wind Pressure Humidity
00:00 +18°C° 0 mm 2 mps 744 mmHg 64%
01:00 +18°C° 0 mm 2 mps 744 mmHg 65%
02:00 +18°C° 0 mm 2 mps 744 mmHg 66%
03:00 +18°C° 0 mm 2 mps 744 mmHg 68%
04:00 +18°C° 0 mm 2 mps 744 mmHg 70%
05:00 +18°C° 0 mm 2 mps 744 mmHg 72%
06:00 +20°C° 0 mm 2 mps 744 mmHg 67%
07:00 +21°C° 0 mm 3 mps 745 mmHg 62%
08:00 +24°C° 0 mm 3 mps 745 mmHg 57%
09:00 +25°C° 0 mm 3 mps 745 mmHg 52%
10:00 +26°C° 0 mm 3 mps 745 mmHg 48%
11:00 +27°C° 0 mm 2 mps 745 mmHg 44%
12:00 +27°C° 0 mm 2 mps 745 mmHg 44%
13:00 +28°C° 0 mm 2 mps 745 mmHg 43%
14:00 +28°C° 0 mm 2 mps 744 mmHg 43%
15:00 +28°C° 0 mm 3 mps 744 mmHg 45%
16:00 +27°C° 0 mm 3 mps 744 mmHg 46%
17:00 +27°C° 0 mm 3 mps 744 mmHg 48%
18:00 +25°C° 0 mm 3 mps 745 mmHg 54%
19:00 +22°C° 0 mm 3 mps 745 mmHg 60%
20:00 +21°C° 0 mm 3 mps 745 mmHg 66%
21:00 +20°C° 0 mm 3 mps 745 mmHg 68%
22:00 +20°C° 0 mm 3 mps 745 mmHg 71%
23:00 +19°C° 0 mm 3 mps 746 mmHg 73%

18 July, Saturday

Time Temperature Precipitation Wind Pressure Humidity
00:00 +19°C° 0 mm 3 mps 746 mmHg 73%
01:00 +19°C° 0 mm 3 mps 746 mmHg 72%
02:00 +19°C° 0 mm 3 mps 746 mmHg 72%
03:00 +19°C° 0 mm 3 mps 746 mmHg 74%
04:00 +18°C° 0 mm 3 mps 746 mmHg 76%
05:00 +18°C° 0 mm 3 mps 746 mmHg 78%
06:00 +20°C° 0 mm 3 mps 747 mmHg 72%
07:00 +22°C° 0 mm 3 mps 747 mmHg 65%
08:00 +25°C° 0 mm 3 mps 747 mmHg 58%
09:00 +26°C° 0 mm 3 mps 747 mmHg 54%
10:00 +27°C° 0 mm 3 mps 747 mmHg 50%
11:00 +28°C° 0 mm 3 mps 747 mmHg 45%
12:00 +28°C° 0 mm 3 mps 747 mmHg 44%
13:00 +29°C° 0 mm 3 mps 747 mmHg 42%
14:00 +29°C° 0 mm 3 mps 747 mmHg 41%
15:00 +29°C° 0 mm 3 mps 747 mmHg 41%
16:00 +28°C° 0 mm 3 mps 747 mmHg 42%
17:00 +28°C° 0 mm 3 mps 747 mmHg 43%
18:00 +26°C° 0 mm 3 mps 747 mmHg 48%
19:00 +24°C° 0 mm 3 mps 747 mmHg 53%
20:00 +21°C° 0 mm 3 mps 747 mmHg 58%
21:00 +21°C° 0 mm 3 mps 747 mmHg 60%
22:00 +20°C° 0 mm 3 mps 747 mmHg 63%
23:00 +19°C° 0 mm 3 mps 747 mmHg 65%

19 July, Sunday

Time Temperature Precipitation Wind Pressure Humidity
00:00 +19°C° 0 mm 3 mps 747 mmHg 67%
01:00 +19°C° 0 mm 3 mps 747 mmHg 69%
02:00 +18°C° 0 mm 3 mps 747 mmHg 72%
03:00 +18°C° 0 mm 3 mps 747 mmHg 73%
04:00 +18°C° 0 mm 3 mps 747 mmHg 74%
05:00 +18°C° 0 mm 3 mps 747 mmHg 75%
06:00 +20°C° 0 mm 3 mps 747 mmHg 69%
07:00 +24°C° 0 mm 3 mps 747 mmHg 62%
08:00 +26°C° 0 mm 3 mps 747 mmHg 55%
09:00 +27°C° 0 mm 3 mps 747 mmHg 51%
10:00 +28°C° 0 mm 3 mps 747 mmHg 46%
11:00 +29°C° 0 mm 3 mps 747 mmHg 41%
12:00 +30°C° 0 mm 3 mps 746 mmHg 40%
13:00 +30°C° 0 mm 3 mps 746 mmHg 38%
14:00 +31°C° 0 mm 3 mps 746 mmHg 36%
15:00 +30°C° 0 mm 3 mps 745 mmHg 38%
16:00 +30°C° 0 mm 3 mps 745 mmHg 40%
17:00 +29°C° 0 mm 3 mps 745 mmHg 42%
18:00 +27°C° 0 mm 3 mps 745 mmHg 47%
19:00 +25°C° 0 mm 3 mps 745 mmHg 52%
20:00 +22°C° 0 mm 3 mps 745 mmHg 57%
21:00 +22°C° 0 mm 3 mps 745 mmHg 61%
22:00 +21°C° 0 mm 3 mps 745 mmHg 65%
23:00 +20°C° 0 mm 3 mps 744 mmHg 69%

20 July, Monday

Time Temperature Precipitation Wind Pressure Humidity
00:00 +20°C° 0 mm 3 mps 744 mmHg 70%
01:00 +19°C° 0 mm 3 mps 744 mmHg 72%
02:00 +19°C° 0 mm 3 mps 744 mmHg 74%
03:00 +19°C° 0 mm 3 mps 744 mmHg 75%
04:00 +19°C° 0 mm 3 mps 744 mmHg 75%
05:00 +19°C° 0 mm 3 mps 744 mmHg 76%
06:00 +21°C° 0 mm 3 mps 744 mmHg 69%
07:00 +24°C° 0 mm 3 mps 744 mmHg 61%
08:00 +26°C° 0 mm 3 mps 744 mmHg 54%
09:00 +28°C° 0 mm 2 mps 744 mmHg 49%
10:00 +29°C° 0 mm 2 mps 744 mmHg 45%
11:00 +30°C° 0 mm 2 mps 744 mmHg 40%
12:00 +30°C° 0 mm 1 mps 743 mmHg 40%
13:00 +30°C° 0 mm 1 mps 743 mmHg 40%
14:00 +30°C° 0 mm 1 mps 743 mmHg 40%
15:00 +30°C° 0 mm 2 mps 742 mmHg 41%
16:00 +30°C° 0 mm 2 mps 742 mmHg 42%
17:00 +30°C° 0 mm 2 mps 742 mmHg 43%
18:00 +28°C° 0 mm 2 mps 741 mmHg 48%
19:00 +26°C° 0 mm 2 mps 741 mmHg 54%
20:00 +24°C° 0 mm 3 mps 741 mmHg 59%
21:00 +22°C° 0 mm 3 mps 741 mmHg 60%
22:00 +22°C° 0 mm 3 mps 741 mmHg 60%
23:00 +21°C° 0 mm 3 mps 741 mmHg 61%
Show more